Year,Month,Day,Hour,Minute,Value (Times are PST for temperature in C)
2014,11,23,07,54,8.30
2014,11,23,07,55,8.20
2014,11,23,07,56,8.20
2014,11,23,07,57,8.20
2014,11,23,07,58,8.20
2014,11,23,07,59,8.20
2014,11,23,08,00,8.20
2014,11,23,08,01,8.20
2014,11,23,08,02,8.10
2014,11,23,08,03,8.20
2014,11,23,08,04,8.20
2014,11,23,08,05,8.20
2014,11,23,08,06,8.20
2014,11,23,08,07,8.20
2014,11,23,08,08,8.20
2014,11,23,08,09,8.20
2014,11,23,08,10,8.20
2014,11,23,08,11,8.20
2014,11,23,08,12,8.20
2014,11,23,08,13,8.20
2014,11,23,08,14,8.20
2014,11,23,08,15,8.20
2014,11,23,08,16,8.20
2014,11,23,09,23,8.80
2014,11,23,09,24,8.80
2014,11,23,09,25,8.80
2014,11,23,09,26,8.80
2014,11,23,09,27,8.80
2014,11,23,09,28,8.80
2014,11,23,09,29,8.80
2014,11,23,09,30,8.80
2014,11,23,09,31,8.80
2014,11,23,09,32,8.80
2014,11,23,09,33,8.80
2014,11,23,09,34,8.80
2014,11,23,09,35,8.90
2014,11,23,09,36,8.90
2014,11,23,09,37,9.00
2014,11,23,09,38,9.00
2014,11,23,09,39,9.00
2014,11,23,09,40,9.10
2014,11,23,09,41,9.10
2014,11,23,09,42,9.20
2014,11,23,09,43,9.30
2014,11,23,09,44,9.40
2014,11,23,09,45,9.50
2014,11,23,09,46,9.50
2014,11,23,09,47,9.60
2014,11,23,09,48,9.70
2014,11,23,09,49,9.70
2014,11,23,09,50,9.70
2014,11,23,09,51,9.80
2014,11,23,09,52,9.90
2014,11,23,09,53,9.90
2014,11,23,09,54,10.00
2014,11,23,09,55,10.10
2014,11,23,09,56,10.10
2014,11,23,09,57,10.10
2014,11,23,09,58,10.10
2014,11,23,09,59,10.10
2014,11,23,10,00,10.00
2014,11,23,10,01,9.90
2014,11,23,10,02,9.90
2014,11,23,10,03,9.90
2014,11,23,10,04,9.90
2014,11,23,10,05,9.90
2014,11,23,10,06,9.80
2014,11,23,10,07,9.80
2014,11,23,10,08,9.80
2014,11,23,10,09,9.80
2014,11,23,10,10,9.80
2014,11,23,10,11,9.80
2014,11,23,10,12,9.90
2014,11,23,10,13,9.90
2014,11,23,10,14,9.90
2014,11,23,10,15,9.90
2014,11,23,10,16,9.90
2014,11,23,10,17,10.00
2014,11,23,10,18,10.10
2014,11,23,10,19,10.10
2014,11,23,10,20,10.10
2014,11,23,10,21,10.10
2014,11,23,10,22,10.20
2014,11,23,10,23,10.20
2014,11,23,10,24,10.20
2014,11,23,10,25,10.20
2014,11,23,10,26,10.20
2014,11,23,10,27,10.20
2014,11,23,10,28,10.20
2014,11,23,10,29,10.20
2014,11,23,10,30,10.20
2014,11,23,10,31,10.20
2014,11,23,10,32,10.20
2014,11,23,10,33,10.20
2014,11,23,10,34,10.20
2014,11,23,10,35,10.30
2014,11,23,10,36,10.30
2014,11,23,10,37,10.40
2014,11,23,10,38,10.40
2014,11,23,10,39,10.40
2014,11,23,10,40,10.50
2014,11,23,10,41,10.60
2014,11,23,10,42,10.60
2014,11,23,10,43,10.60
2014,11,23,10,44,10.70
2014,11,23,10,45,10.80
2014,11,23,10,46,10.80
2014,11,23,10,47,10.80
2014,11,23,10,48,10.90
2014,11,23,10,49,10.90
2014,11,23,10,50,10.90
2014,11,23,10,51,10.90
2014,11,23,10,52,10.90
2014,11,23,10,53,11.00
2014,11,23,10,54,11.10
2014,11,23,10,55,11.10
2014,11,23,10,56,11.10
2014,11,23,10,57,11.10
2014,11,23,10,58,11.10
2014,11,23,10,59,11.10
2014,11,23,11,00,11.10
2014,11,23,11,01,11.10
2014,11,23,11,02,11.10
2014,11,23,11,03,11.10
2014,11,23,11,04,11.10
2014,11,23,11,05,11.10
2014,11,23,11,06,11.10
2014,11,23,11,07,11.10
2014,11,23,11,08,11.10
2014,11,23,11,09,11.20
2014,11,23,11,10,11.20
2014,11,23,11,11,11.20
2014,11,23,11,12,11.20
2014,11,23,11,13,11.20
2014,11,23,11,14,11.20
2014,11,23,11,15,11.20
2014,11,23,11,16,11.20
2014,11,23,11,17,11.30
2014,11,23,11,18,11.30
2014,11,23,11,19,11.30
2014,11,23,11,20,11.40
2014,11,23,11,21,11.40
2014,11,23,11,22,11.40
2014,11,23,11,23,11.30
2014,11,23,11,24,11.30
2014,11,23,11,25,11.30
2014,11,23,11,26,11.40
2014,11,23,11,27,11.40
2014,11,23,11,28,11.40
2014,11,23,11,29,11.40
2014,11,23,11,30,11.30
2014,11,23,11,31,11.30
2014,11,23,11,32,11.30
2014,11,23,11,33,11.30
2014,11,23,11,34,11.40
2014,11,23,11,35,11.40
2014,11,23,11,36,11.40
2014,11,23,11,37,11.40
2014,11,23,11,38,11.40
2014,11,23,11,39,11.40
2014,11,23,11,40,11.30
2014,11,23,11,41,11.30
2014,11,23,11,42,11.20
2014,11,23,11,43,11.10
2014,11,23,11,44,11.10
2014,11,23,11,45,11.10
2014,11,23,11,46,11.10
2014,11,23,11,47,11.00
2014,11,23,11,48,11.00
2014,11,23,11,49,11.10
2014,11,23,11,50,11.10
2014,11,23,11,51,11.10
2014,11,23,11,52,11.10
2014,11,23,11,53,11.10
2014,11,23,11,54,11.10
2014,11,23,11,55,11.10
2014,11,23,11,56,11.10
2014,11,23,11,57,11.10
2014,11,23,11,58,11.20
2014,11,23,11,59,11.20
2014,11,23,12,00,11.30
2014,11,23,12,01,11.30
2014,11,23,12,02,11.40
2014,11,23,12,03,11.40
2014,11,23,12,04,11.40
2014,11,23,12,05,11.30
2014,11,23,12,06,11.30
2014,11,23,12,07,11.30
2014,11,23,12,08,11.40
2014,11,23,12,09,11.40
2014,11,23,12,10,11.40
2014,11,23,12,11,11.60
2014,11,23,12,12,11.60
2014,11,23,12,13,11.60
2014,11,23,12,14,11.60
2014,11,23,12,15,11.50
2014,11,23,12,16,11.40
2014,11,23,12,17,11.40
2014,11,23,12,18,11.40
2014,11,23,12,19,11.40
2014,11,23,12,20,11.40
2014,11,23,12,21,11.50
2014,11,23,12,22,11.60
2014,11,23,12,23,11.60
2014,11,23,12,24,11.60
2014,11,23,12,25,11.60
2014,11,23,12,26,11.60
2014,11,23,12,27,11.60
2014,11,23,12,28,11.60
2014,11,23,12,29,11.60
2014,11,23,12,30,11.60
2014,11,23,12,31,11.50
2014,11,23,12,32,11.40
2014,11,23,12,33,11.40
2014,11,23,12,34,11.40
2014,11,23,12,35,11.40
2014,11,23,12,36,11.50
2014,11,23,12,37,11.60
2014,11,23,12,38,11.60
2014,11,23,12,39,11.60
2014,11,23,12,40,11.60
2014,11,23,12,41,11.60
2014,11,23,12,42,11.60
2014,11,23,12,43,11.60
2014,11,23,12,44,11.60
2014,11,23,12,45,11.60
2014,11,23,12,46,11.60
2014,11,23,12,47,11.60
2014,11,23,12,48,11.60
2014,11,23,12,49,11.60
2014,11,23,12,50,11.50
2014,11,23,12,51,11.40
2014,11,23,12,52,11.40
2014,11,23,12,53,11.40
2014,11,23,12,54,11.40
2014,11,23,12,55,11.40
2014,11,23,12,56,11.40
2014,11,23,12,57,11.40
2014,11,23,12,58,11.40
2014,11,23,12,59,11.40
2014,11,23,13,00,11.30
2014,11,23,13,01,11.30
2014,11,23,13,02,11.30
2014,11,23,13,03,11.30
2014,11,23,13,04,11.30
2014,11,23,13,05,11.20
2014,11,23,13,06,11.20
2014,11,23,13,07,11.20
2014,11,23,13,08,11.20
2014,11,23,13,09,11.20
2014,11,23,13,10,11.20
2014,11,23,13,11,11.10
2014,11,23,13,12,11.10
2014,11,23,13,13,11.10
2014,11,23,13,14,11.10
2014,11,23,13,15,11.00
2014,11,23,13,16,10.90
2014,11,23,13,17,10.90
2014,11,23,13,18,10.90
2014,11,23,13,19,10.90
2014,11,23,13,20,10.90
2014,11,23,13,21,10.90
2014,11,23,13,22,10.90
2014,11,23,13,23,10.90
2014,11,23,13,24,10.90
2014,11,23,13,25,10.90
2014,11,23,13,26,10.80
2014,11,23,13,27,10.80
2014,11,23,13,28,10.80
2014,11,23,13,29,10.80
2014,11,23,13,30,10.80
2014,11,23,13,31,10.80
2014,11,23,13,32,10.80
2014,11,23,13,33,10.80
2014,11,23,13,34,10.80
2014,11,23,13,35,10.80
2014,11,23,13,36,10.80
2014,11,23,13,37,10.80
2014,11,23,13,38,10.80
2014,11,23,13,39,10.90
2014,11,23,13,40,10.90
2014,11,23,13,41,10.90
2014,11,23,13,42,11.00
2014,11,23,13,43,11.10
2014,11,23,13,44,11.10
2014,11,23,13,45,11.10
2014,11,23,13,46,11.20
2014,11,23,13,47,11.20
2014,11,23,13,48,11.20
2014,11,23,13,49,11.20
2014,11,23,13,50,11.30
2014,11,23,13,51,11.30
2014,11,23,13,52,11.40
2014,11,23,13,53,11.40
2014,11,23,13,54,11.40
2014,11,23,13,55,11.40
2014,11,23,13,56,11.50
2014,11,23,13,57,11.60
2014,11,23,13,58,11.60
2014,11,23,13,59,11.60
2014,11,23,14,00,11.70
2014,11,23,14,01,11.70
2014,11,23,14,02,11.70
2014,11,23,14,03,11.60
2014,11,23,14,04,11.60
2014,11,23,14,05,11.60
2014,11,23,14,06,11.60
2014,11,23,14,07,11.60
2014,11,23,14,08,11.60
2014,11,23,14,09,11.60
2014,11,23,14,10,11.70
2014,11,23,14,11,11.70
2014,11,23,14,12,11.70
2014,11,23,14,13,11.70
2014,11,23,14,14,11.70
2014,11,23,14,15,11.60
2014,11,23,14,16,11.60
2014,11,23,14,17,11.60
2014,11,23,14,18,11.60
2014,11,23,14,19,11.50
2014,11,23,14,20,11.40
2014,11,23,14,21,11.40
2014,11,23,14,22,11.30
2014,11,23,14,23,11.30
2014,11,23,14,24,11.20
2014,11,23,14,25,11.10
2014,11,23,14,26,11.10
2014,11,23,14,27,11.00
2014,11,23,14,28,10.90
2014,11,23,14,29,10.90
2014,11,23,14,30,10.90
2014,11,23,14,31,10.90
2014,11,23,14,32,10.90
2014,11,23,14,33,11.10
2014,11,23,14,34,11.10
2014,11,23,14,35,11.10
2014,11,23,14,36,11.10
2014,11,23,14,37,11.10
2014,11,23,14,38,11.20
2014,11,23,14,39,11.20
2014,11,23,14,40,11.20
2014,11,23,14,41,11.20
2014,11,23,14,42,11.20
2014,11,23,14,43,11.20
2014,11,23,14,44,11.30
2014,11,23,14,45,11.30
2014,11,23,14,46,11.40
2014,11,23,14,47,11.40
2014,11,23,14,48,11.40
2014,11,23,14,49,11.30
2014,11,23,14,50,11.30
2014,11,23,14,51,11.30
2014,11,23,14,52,11.30
2014,11,23,14,53,11.30
2014,11,23,14,54,11.30
2014,11,23,14,55,11.30
2014,11,23,14,56,11.30
2014,11,23,14,57,11.20
2014,11,23,14,58,11.20
2014,11,23,14,59,11.20
2014,11,23,15,00,11.20
2014,11,23,15,01,11.10
2014,11,23,15,02,11.10
2014,11,23,15,03,11.10
2014,11,23,15,04,11.10
2014,11,23,15,05,11.10
2014,11,23,15,06,11.00
2014,11,23,15,07,10.90
2014,11,23,15,08,10.90
2014,11,23,15,09,10.90
2014,11,23,15,10,10.90
2014,11,23,15,11,10.90
2014,11,23,15,12,10.90
2014,11,23,15,13,10.90
2014,11,23,15,14,10.80
2014,11,23,15,15,10.70
2014,11,23,15,16,10.70
2014,11,23,15,17,10.60
2014,11,23,15,18,10.60
2014,11,23,15,19,10.60
2014,11,23,15,20,10.60
2014,11,23,15,21,10.60
2014,11,23,15,22,10.60
2014,11,23,15,23,10.60
2014,11,23,15,24,10.60
2014,11,23,15,25,10.50
2014,11,23,15,26,10.40
2014,11,23,15,27,10.40
2014,11,23,15,28,10.40
2014,11,23,15,29,10.40
2014,11,23,15,30,10.40
2014,11,23,15,31,10.40
2014,11,23,15,32,10.30
2014,11,23,15,33,10.30
2014,11,23,15,34,10.20
2014,11,23,15,35,10.10
2014,11,23,15,36,10.10
2014,11,23,15,37,10.10
2014,11,23,15,38,10.10
2014,11,23,15,39,10.00
2014,11,23,15,40,9.90
2014,11,23,15,41,9.90
2014,11,23,15,42,9.90
2014,11,23,15,43,9.90
2014,11,23,15,44,9.90
2014,11,23,15,45,9.90
2014,11,23,15,46,9.90
2014,11,23,15,47,9.90
2014,11,23,15,48,9.90
2014,11,23,15,49,9.90
2014,11,23,15,50,9.90
2014,11,23,15,51,9.90
2014,11,23,15,52,9.90
2014,11,23,15,53,9.90
2014,11,23,15,54,9.90
2014,11,23,15,55,9.90
2014,11,23,15,56,9.90
2014,11,23,15,57,9.90
2014,11,23,15,58,9.90
2014,11,23,15,59,9.90
2014,11,23,16,00,9.90
2014,11,23,16,01,9.90
2014,11,23,16,02,9.90
2014,11,23,16,03,9.90
2014,11,23,16,04,9.90
2014,11,23,16,05,9.90
2014,11,23,16,06,9.90
2014,11,23,16,07,9.90
2014,11,23,16,08,9.90
2014,11,23,16,09,9.90
2014,11,23,16,10,9.90
2014,11,23,16,11,9.90
2014,11,23,16,12,9.90
2014,11,23,16,13,9.90
2014,11,23,16,14,9.90
2014,11,23,16,15,9.80
2014,11,23,16,16,9.90
2014,11,23,16,17,9.80
2014,11,23,16,18,9.80
2014,11,23,16,19,9.80
2014,11,23,16,20,9.80
2014,11,23,16,21,9.80
2014,11,23,16,22,9.80
2014,11,23,16,23,9.80
2014,11,23,16,24,9.80
2014,11,23,16,25,9.70
2014,11,23,16,26,9.70
2014,11,23,16,27,9.70
2014,11,23,16,28,9.70
2014,11,23,16,29,9.70
2014,11,23,16,30,9.70
2014,11,23,16,31,9.70
2014,11,23,16,32,9.70
2014,11,23,16,33,9.70
2014,11,23,16,34,9.70
2014,11,23,16,35,9.70
2014,11,23,16,36,9.70
2014,11,23,16,37,9.70
2014,11,23,16,38,9.60
2014,11,23,16,39,9.60
2014,11,23,16,40,9.50
2014,11,23,16,41,9.50
2014,11,23,16,42,9.40
2014,11,23,16,43,9.40
2014,11,23,16,44,9.30
2014,11,23,16,45,9.30
2014,11,23,16,46,9.30
2014,11,23,16,47,9.30
2014,11,23,16,48,9.20
2014,11,23,16,49,9.20
2014,11,23,16,50,9.20
2014,11,23,16,51,9.10
2014,11,23,16,52,9.10
2014,11,23,16,53,9.00
2014,11,23,16,54,9.00
2014,11,23,16,55,8.90
2014,11,23,16,56,8.90
2014,11,23,16,57,8.80
2014,11,23,16,58,8.80
2014,11,23,16,59,8.70
2014,11,23,17,00,8.60
2014,11,23,17,01,8.60
2014,11,23,17,02,8.50
2014,11,23,17,03,8.50
2014,11,23,17,04,8.40
2014,11,23,17,05,8.40
2014,11,23,17,06,8.30
2014,11,23,17,07,8.30
2014,11,23,17,08,8.20
2014,11,23,17,09,8.20
2014,11,23,17,10,8.20
2014,11,23,17,11,8.20
2014,11,23,17,12,8.10
2014,11,23,17,13,8.00
2014,11,23,17,14,8.00
2014,11,23,17,15,8.00
2014,11,23,17,16,7.90
2014,11,23,17,17,7.90
2014,11,23,17,18,7.80
2014,11,23,17,19,7.80
2014,11,23,17,20,7.80
2014,11,23,17,21,7.70
2014,11,23,17,22,7.70
2014,11,23,17,23,7.60
2014,11,23,17,24,7.60
2014,11,23,17,25,7.60
2014,11,23,17,26,7.50
2014,11,23,17,27,7.50
2014,11,23,17,28,7.40
2014,11,23,17,29,7.40
2014,11,23,17,30,7.40
2014,11,23,17,31,7.30
2014,11,23,17,32,7.30
2014,11,23,17,33,7.30
2014,11,23,17,34,7.30
2014,11,23,17,35,7.20
2014,11,23,17,36,7.20
2014,11,23,17,37,7.20
2014,11,23,17,38,7.10
2014,11,23,17,39,7.10
2014,11,23,17,40,7.10
2014,11,23,17,41,7.00
2014,11,23,17,42,7.00
2014,11,23,17,43,7.00
2014,11,23,17,44,6.90
2014,11,23,17,45,6.90
2014,11,23,17,46,6.80
2014,11,23,17,47,6.80
2014,11,23,17,48,6.80
2014,11,23,17,49,6.80
2014,11,23,17,50,6.80
2014,11,23,17,51,6.80
2014,11,23,17,52,6.70
2014,11,23,17,53,6.70
2014,11,23,17,54,6.70
2014,11,23,17,55,6.70
2014,11,23,17,56,6.70
2014,11,23,17,57,6.70
2014,11,23,17,58,6.70
2014,11,23,17,59,6.70
2014,11,23,18,00,6.70
2014,11,23,18,01,6.70
2014,11,23,18,02,6.70
2014,11,23,18,03,6.80
2014,11,23,18,04,6.80
2014,11,23,18,05,6.80
2014,11,23,18,06,6.80
2014,11,23,18,07,6.80
2014,11,23,18,08,6.80
2014,11,23,18,09,6.80
2014,11,23,18,10,6.80
2014,11,23,18,11,6.80
2014,11,23,18,12,6.80
2014,11,23,18,13,6.80
2014,11,23,18,14,6.80
2014,11,23,18,15,6.80
2014,11,23,18,16,6.80
2014,11,23,18,17,6.80
2014,11,23,18,18,6.80
2014,11,23,18,19,6.80
2014,11,23,18,20,6.80
2014,11,23,18,21,6.80
2014,11,23,18,22,6.80
2014,11,23,18,23,6.80
2014,11,23,18,24,6.80
2014,11,23,18,25,6.80
2014,11,23,18,26,6.80
2014,11,23,18,27,6.80
2014,11,23,18,28,6.80
2014,11,23,18,29,6.80
2014,11,23,18,30,6.80
2014,11,23,18,31,6.80
2014,11,23,18,32,6.80
2014,11,23,18,33,6.70
2014,11,23,18,34,6.70
2014,11,23,18,35,6.70
2014,11,23,18,36,6.70
2014,11,23,18,37,6.60
2014,11,23,18,38,6.60
2014,11,23,18,39,6.60
2014,11,23,18,40,6.60
2014,11,23,18,41,6.60
2014,11,23,18,42,6.60
2014,11,23,18,43,6.60
2014,11,23,18,44,6.60
2014,11,23,18,45,6.60
2014,11,23,18,46,6.60
2014,11,23,18,47,6.60
2014,11,23,18,48,6.60
2014,11,23,18,49,6.60
